Location: Leganes-MADRID
(40.3441°N, 3.7527°W)
Time: 00:30:55
(UTC+02:00)

Hubble Space Telescope - Visible Passes

Search period start: 26 June 2017 00:00
Search period end: 06 July 2017 00:00
Orbit: 538 x 541 km, 28.5° (Epoch: 25 June)

Date Brightness Start Highest point End Pass type
(mag) Time Alt. Az. Time Alt. Az. Time Alt. Az.
01 Jul 3.1 06:02:50 10° S 06:03:51 11° SSE 06:04:52 10° SSE visible
02 Jul 2.9 05:51:57 10° SSW 05:53:38 12° SSE 05:55:19 10° SE visible
03 Jul 2.8 05:41:56 11° SSW 05:43:25 13° S 05:45:29 10° SE visible
04 Jul 2.7 05:32:18 14° S 05:33:13 14° S 05:35:30 10° SE visible
05 Jul 2.6 05:22:43 15° S 05:23:00 15° S 05:25:27 10° SE visible
